Location: ???????
(55.7027°N, 37.3832°E)
Time: 17:04:58
(UTC+00:00)

Cosmos 1190 Rocket - Pass Details

Date: 14 April 2026
Orbit: 752 x 776 km, 74.1° (Epoch: 16 May)

Event Time Altitude Azimuth Distance (km) Brightness Sun altitude
Rises 20:39:24 0° 332° (NNW) 3,269 8.6 -23.8°
Reaches altitude 10° 20:41:50 10° 336° (NNW) 2,338 7.5 -23.9°
Maximum altitude 20:47:07 63° 57° (ENE) 870 4.3 -24.0°
Enters shadow 20:48:17 49° 110° (ESE) 994 4.3 -24.1°
